Regional Weather Roundup
Issued by NWS

Home | Current Version | Previous Version | Graphics & Text | Print | Product List | Glossary On
Versions: 1 2 3 4 5 6 7 8 9 10 11 12 13 14 15 16 17 18 19 20 21 22 23 24 25 26 27 28 29 30 31 32 33 34 35 36 37 38 39 40 41 42 43 44 45 46 47 48 49 50
000
ASUS45 KCYS 191910
RWRWY

WYOMING REGIONAL WEATHER ROUNDUP
NATIONAL WEATHER SERVICE CHEYENNE WY
100 PM MDT THU OCT 19 2017

NOTE:  "FAIR" INDICATES FEW OR NO CLOUDS BELOW 12,000 FEET
WITH NO SIGNIFICANT WEATHER AND/OR OBSTRUCTIONS TO VISIBILITY.

WYZ001-192000-
YELLOWSTONE NATIONAL PARK

CITY           SKY/WX    TMP DP  RH WIND       PRES   REMARKS
LK YELLOWSTONE   N/A     55  13  18 VRB5      30.08F
W YELLOWSTONE  NOT AVBL

$$
WYZ002>013-054>058-071-098>099-192000-
NORTHERN WYOMING

CITY           SKY/WX    TMP DP  RH WIND       PRES   REMARKS
JACKSON        FAIR      57  24  28 SW9       30.03F
CODY           FAIR      71  20  14 SW10      29.88F
GREYBULL       FAIR      65  26  23 CALM      29.85F
WORLAND        FAIR      71  27  19 VRB7      29.85F
SHERIDAN       FAIR      80  33  18 CALM      29.78F
BUFFALO        FAIR      75  20  12 SE12      29.85F
GILLETTE       FAIR      75  23  14 S9        29.84F
HULETT         FAIR      77  23  13 SW12      29.86F
NEWCASTLE      FAIR      70  19  14 SE5       29.91F

$$
WYZ014>020-022>026-101>103-192000-
CENTRAL WYOMING

CITY           SKY/WX    TMP DP  RH WIND       PRES   REMARKS
BIG PINEY      FAIR      54  17  23 S6        30.09F
PINEDALE       FAIR      59  12  15 SE6       30.09F
DUBOIS         FAIR      52  14  22 W5        30.04F
LANDER         FAIR      63  22  20 CALM      29.95F
RIVERTON       FAIR      63  20  19 N5        29.96F
CASPER         FAIR      73  14  10 SW24G31   29.95F
DOUGLAS        FAIR      76  19  11 S5        29.94F

$$
WYZ021-027>030-104>119-192000-
SOUTHERN WYOMING

CITY           SKY/WX    TMP DP  RH WIND       PRES   REMARKS
EVANSTON       FAIR      65  18  16 SW21      30.07F
KEMMERER       FAIR      63  12  14 SW3       30.09F
FORT BRIDGER   FAIR      62  17  17 E6        30.10F
ROCK SPRINGS   FAIR      59  11  15 VRB3      30.08F
DIXON          FAIR      69  15  12 SW12G20   30.11F
RAWLINS        FAIR      67  11  11 SW18      30.08F
SARATOGA       FAIR      68  14  12 S16G22    30.10F
LARAMIE        FAIR      68   8   9 SW13      30.09F
CHEYENNE       FAIR      73  15  11 SE6       30.04F
TORRINGTON     FAIR      73  21  14 SE7       29.93F
PINE BLUFFS    FAIR      73  21  14 S7        30.00F

$$



USA.gov is the U.S. government's official web portal to all federal, state and local government web resources and services.